METEOSAT-8 (MSG-1) (27509 NORAD) Tracking and Keplerian Element Data

This shows tracking and keplerian element data for the satellite.

Feedback or suggestion? Click here.




ElementValue
Catalog27509
NameMETEOSAT-8 (MSG-1)
Epoch Orbit7375
Epoch Day282.4491058
Epoch Year2022
RAAN50.0173
Inclination8.2466
Eccentricity0.0002623
Argument of Perigee140.7825
Mean Anonmoly21.5093
Mean Motion0.99400024
Decay Rate4.1E-07
L11 27509U 02040B 22282.44910580 .00000041 00000+0 00000+0 0 9999
L22 27509 8.2466 50.0173 0002623 140.7825 21.5093 0.99400024 73757



Live tracking and technical data element details for METEOSAT-8 (MSG-1) (NORAD 27509). METEOSAT-8 (MSG-1) can be tracked NOW for your location showing map with azimuth and elevation plus other details from your city location.







IsCatalogInMostPopularTable: catalog: 27509, numindb: 358
Update: records affected: 1



GetName: 27509 METEOSAT-8 (MSG-1)

Hit Count: updated at: Sat, 24 May 2025 17:16:34 GMT